Flag for U.S.A. Weather past 2 weeks in Salinas, California, U.S.A.

Now
56 °F

Sunny.


Feels Like: 52 °F
Forecast: 44 / 72 °F
Wind: 14 mph from East

Location: Salinas Municipal Airport

Current Time: Mar 5, 2015 at 9:17:40 AM

Latest Report: Mar 5, 2015 at 8:53 AM


Visibility: 10 mi

Pressure: 30.34 "Hg

Humidity: 60%

Dew point: 42 °F

Location of SalinasLocation

Historic Weather in Salinas — Graph

°F

Salinas temperature yesterday

Maximum temperature yesterday: 71 °F (at 1:53 PM)
Minimum temperature yesterday: 45 °F (at 3:53 AM)
Average temperature yesterday: 55 °F

Past Weeks' High & Low Weather Summary

 TemperatureHumidityPressure
High73 °F (Feb 20, 2:53 PM)94% (Feb 21, 8:03 AM)30.39 "Hg (Feb 21, 8:03 AM)
Low38 °F (Feb 24, 5:53 AM)17% (Feb 24, 3:53 PM)29.78 "Hg (Feb 28, 4:53 AM)
Average55 °F70%30.04 "Hg
* Reported Feb 18 7:53 AM — Mar 5 7:53 AM, Salinas, Weather by CustomWeather, © 2015

Note: Actual official high and low records may vary slightly from our data, if they occured in-between our weather recording intervals... More about our weather records

Advertising

Salinas weather history for previous 24 hours

 ConditionsComfort  
Time TempWeatherWind HumidityBarometerVisibility
7:53 AM
Thu, Mar 5
51 °FSunny.17 mph69%30.32 "Hg10 mi
6:53 AM48 °FSunny.15 mph74%30.29 "Hg10 mi
5:53 AM47 °FClear.10 mph77%30.29 "Hg10 mi
4:53 AM48 °FClear.9 mph74%30.27 "Hg10 mi
3:53 AM47 °FClear.9 mph77%30.24 "Hg10 mi
2:53 AM49 °FClear.8 mph74%30.25 "Hg10 mi
1:53 AM49 °FClear.7 mph71%30.25 "Hg10 mi
12:53 AM48 °FClear.3 mph74%30.25 "Hg10 mi
11:53 PM
Wed, Mar 4
48 °FClear.3 mph77%30.24 "Hg10 mi
10:53 PM49 °FClear.No wind74%30.24 "Hg10 mi
9:53 PM53 °FClear.No wind69%30.24 "Hg10 mi
8:53 PM56 °FClear.No wind65%30.22 "Hg10 mi
7:53 PM57 °FClear.No wind62%30.21 "Hg10 mi
6:53 PM60 °FClear.5 mph58%30.19 "Hg10 mi
5:53 PM62 °FSunny.5 mph48%30.18 "Hg10 mi
4:53 PM64 °FSunny.12 mph47%30.16 "Hg10 mi
3:53 PM68 °FSunny.12 mph35%30.15 "Hg10 mi
2:53 PM70 °FSunny.12 mph32%30.14 "Hg10 mi
1:53 PM71 °FSunny.No wind25%30.14 "Hg10 mi
12:53 PM69 °FSunny.No wind31%30.15 "Hg10 mi
11:53 AM65 °FSunny.3 mph44%30.16 "Hg10 mi
10:53 AM61 °FSunny.No wind54%30.16 "Hg10 mi
9:53 AM56 °FSunny.12 mph65%30.16 "Hg10 mi
Weather by CustomWeather, © 2015

See weather overviewHow to use our weather pages